Time,TemperatureF,DewpointF,PressureIn,WindDirection,WindDirectionDegrees,WindSpeedMPH,WindSpeedGustMPH,Humidity,HourlyPrecipIn,Conditions,Clouds,dailyrainin,SolarRadiationWatts/m^2,SoftwareType,DateUTC
2013-03-20 00:03:00,58.0,52.0,-100.00,SE,130,4.0,6.0,79,0.00,,,0.00,0.000000,,2013-03-20 10:03:00,
2013-03-20 00:12:00,58.0,52.0,-100.00,SE,130,4.0,6.0,79,0.00,,,0.00,0.000000,,2013-03-20 10:12:00,
2013-03-20 00:22:00,58.0,52.0,-100.00,SE,130,4.0,6.0,79,0.00,,,0.00,0.000000,,2013-03-20 10:22:00,
2013-03-20 00:32:00,58.0,52.0,-100.00,SE,130,4.0,6.0,79,0.00,,,0.00,0.000000,,2013-03-20 10:32:00,
2013-03-20 01:02:00,59.0,52.0,-100.00,SE,139,3.0,8.0,78,0.00,,,0.00,0.000000,,2013-03-20 11:02:00,
2013-03-20 01:12:00,59.0,52.0,-100.00,SE,139,3.0,8.0,78,0.00,,,0.00,0.000000,,2013-03-20 11:12:00,
2013-03-20 01:22:00,59.0,52.0,-100.00,SE,139,3.0,8.0,78,0.00,,,0.00,0.000000,,2013-03-20 11:22:00,
2013-03-20 01:32:00,59.0,52.0,-100.00,SE,139,3.0,8.0,78,0.00,,,0.00,0.000000,,2013-03-20 11:32:00,
2013-03-20 02:02:00,59.0,54.0,-100.00,SE,127,3.0,9.0,82,0.00,,,0.00,0.000000,,2013-03-20 12:02:00,
2013-03-20 02:12:00,59.0,54.0,-100.00,SE,127,3.0,9.0,82,0.00,,,0.00,0.000000,,2013-03-20 12:12:00,
2013-03-20 02:22:00,59.0,54.0,-100.00,SE,127,3.0,9.0,82,0.00,,,0.00,0.000000,,2013-03-20 12:22:00,
2013-03-20 02:32:00,59.0,54.0,-100.00,SE,127,3.0,9.0,82,0.00,,,0.00,0.000000,,2013-03-20 12:32:00,
2013-03-20 03:03:00,57.0,51.0,-100.00,NW,316,1.0,8.0,79,0.00,,,0.00,0.000000,,2013-03-20 13:03:00,
2013-03-20 03:12:00,57.0,51.0,-100.00,NW,316,1.0,8.0,79,0.00,,,0.00,0.000000,,2013-03-20 13:12:00,
2013-03-20 03:22:00,57.0,51.0,-100.00,NW,316,1.0,8.0,79,0.00,,,0.00,0.000000,,2013-03-20 13:22:00,
2013-03-20 03:32:00,57.0,51.0,-100.00,NW,316,1.0,8.0,79,0.00,,,0.00,0.000000,,2013-03-20 13:32:00,
2013-03-20 04:02:00,58.0,50.0,-100.00,WNW,288,2.0,7.0,75,0.00,,,0.00,0.000000,,2013-03-20 14:02:00,
2013-03-20 04:12:00,58.0,50.0,-100.00,WNW,288,2.0,7.0,75,0.00,,,0.00,0.000000,,2013-03-20 14:12:00,
2013-03-20 04:22:00,58.0,50.0,-100.00,WNW,288,2.0,7.0,75,0.00,,,0.00,0.000000,,2013-03-20 14:22:00,
2013-03-20 04:32:00,58.0,50.0,-100.00,WNW,288,2.0,7.0,75,0.00,,,0.00,0.000000,,2013-03-20 14:32:00,
2013-03-20 05:02:00,56.0,49.0,-100.00,ESE,105,1.0,5.0,77,0.00,,,0.00,0.000000,,2013-03-20 15:02:00,
2013-03-20 05:12:00,56.0,49.0,-100.00,ESE,105,1.0,5.0,77,0.00,,,0.00,0.000000,,2013-03-20 15:12:00,
2013-03-20 05:22:00,56.0,49.0,-100.00,ESE,105,1.0,5.0,77,0.00,,,0.00,0.000000,,2013-03-20 15:22:00,
2013-03-20 05:33:00,56.0,49.0,-100.00,ESE,105,1.0,5.0,77,0.00,,,0.00,0.000000,,2013-03-20 15:33:00,
2013-03-20 06:03:00,56.0,51.0,-100.00,ESE,112,3.0,4.0,82,0.00,,,0.00,0.000000,,2013-03-20 16:03:00,
2013-03-20 06:12:00,56.0,51.0,-100.00,ESE,112,3.0,4.0,82,0.00,,,0.00,0.000000,,2013-03-20 16:12:00,
2013-03-20 06:23:00,56.0,51.0,-100.00,ESE,112,3.0,4.0,82,0.00,,,0.00,0.000000,,2013-03-20 16:23:00,
2013-03-20 06:32:00,56.0,51.0,-100.00,ESE,112,3.0,4.0,82,0.00,,,0.00,0.000000,,2013-03-20 16:32:00,
2013-03-20 07:03:00,56.0,50.0,-100.00,SE,125,4.0,6.0,81,0.00,,,0.00,0.000000,,2013-03-20 17:03:00,
2013-03-20 07:12:00,56.0,50.0,-100.00,SE,125,4.0,6.0,81,0.00,,,0.00,0.000000,,2013-03-20 17:12:00,
2013-03-20 07:22:00,56.0,50.0,-100.00,SE,125,4.0,6.0,81,0.00,,,0.00,0.000000,,2013-03-20 17:22:00,
2013-03-20 07:32:00,56.0,50.0,-100.00,SE,125,4.0,6.0,81,0.00,,,0.00,0.000000,,2013-03-20 17:32:00,
2013-03-20 08:02:00,63.0,55.0,-100.00,ESE,114,3.0,8.0,74,0.00,,,0.00,91.000000,,2013-03-20 18:02:00,
2013-03-20 08:12:00,63.0,55.0,-100.00,ESE,114,3.0,8.0,74,0.00,,,0.00,91.000000,,2013-03-20 18:12:00,
2013-03-20 08:22:00,63.0,55.0,-100.00,ESE,114,3.0,8.0,74,0.00,,,0.00,91.000000,,2013-03-20 18:22:00,
2013-03-20 08:32:00,63.0,55.0,-100.00,ESE,114,3.0,8.0,74,0.00,,,0.00,91.000000,,2013-03-20 18:32:00,
2013-03-20 09:02:00,70.0,54.0,-100.00,SSE,148,3.0,7.0,57,0.00,,,0.00,336.000000,,2013-03-20 19:02:00,
2013-03-20 09:12:00,70.0,54.0,-100.00,SSE,148,3.0,7.0,57,0.00,,,0.00,336.000000,,2013-03-20 19:12:00,
2013-03-20 09:22:00,70.0,54.0,-100.00,SSE,148,3.0,7.0,57,0.00,,,0.00,336.000000,,2013-03-20 19:22:00,
2013-03-20 09:32:00,70.0,54.0,-100.00,SSE,148,3.0,7.0,57,0.00,,,0.00,336.000000,,2013-03-20 19:32:00,
2013-03-20 10:02:00,73.0,56.0,-100.00,SE,126,3.0,8.0,55,0.00,,,0.00,640.000000,,2013-03-20 20:02:00,
2013-03-20 10:12:00,73.0,56.0,-100.00,SE,126,3.0,8.0,55,0.00,,,0.00,640.000000,,2013-03-20 20:12:00,
2013-03-20 10:22:00,73.0,56.0,-100.00,SE,126,3.0,8.0,55,0.00,,,0.00,640.000000,,2013-03-20 20:22:00,
2013-03-20 10:32:00,73.0,56.0,-100.00,SE,126,3.0,8.0,55,0.00,,,0.00,640.000000,,2013-03-20 20:32:00,
2013-03-20 11:02:00,77.0,55.0,-100.00,WSW,244,4.0,9.0,47,0.00,,,0.00,1056.000000,,2013-03-20 21:02:00,
2013-03-20 11:12:00,77.0,55.0,-100.00,WSW,244,4.0,9.0,47,0.00,,,0.00,1056.000000,,2013-03-20 21:12:00,
2013-03-20 11:22:00,77.0,55.0,-100.00,WSW,244,4.0,9.0,47,0.00,,,0.00,1056.000000,,2013-03-20 21:22:00,
2013-03-20 11:33:00,77.0,55.0,-100.00,WSW,244,4.0,9.0,47,0.00,,,0.00,1056.000000,,2013-03-20 21:33:00,
2013-03-20 12:03:00,78.0,55.0,-100.00,SSE,159,4.0,13.0,45,0.00,,,0.00,1190.000000,,2013-03-20 22:03:00,
2013-03-20 12:12:00,78.0,55.0,-100.00,SSE,159,4.0,13.0,45,0.00,,,0.00,1190.000000,,2013-03-20 22:12:00,
2013-03-20 12:23:00,78.0,55.0,-100.00,SSE,159,4.0,13.0,45,0.00,,,0.00,1190.000000,,2013-03-20 22:23:00,
2013-03-20 12:32:00,78.0,55.0,-100.00,SSE,159,4.0,13.0,45,0.00,,,0.00,1190.000000,,2013-03-20 22:32:00,
2013-03-20 13:02:00,74.0,54.0,-100.00,ENE,73,4.0,14.0,50,0.00,,,0.00,859.000000,,2013-03-20 23:02:00,
2013-03-20 13:12:00,74.0,54.0,-100.00,ENE,73,4.0,14.0,50,0.00,,,0.00,859.000000,,2013-03-20 23:12:00,
2013-03-20 13:22:00,74.0,54.0,-100.00,ENE,73,4.0,14.0,50,0.00,,,0.00,859.000000,,2013-03-20 23:22:00,
2013-03-20 13:32:00,74.0,54.0,-100.00,ENE,73,4.0,14.0,50,0.00,,,0.00,859.000000,,2013-03-20 23:32:00,
2013-03-20 14:02:00,72.0,56.0,-100.00,SSE,162,3.0,13.0,58,0.00,,,0.00,453.000000,,2013-03-21 00:02:00,
2013-03-20 14:12:00,72.0,56.0,-100.00,SSE,162,3.0,13.0,58,0.00,,,0.00,453.000000,,2013-03-21 00:12:00,
2013-03-20 14:22:00,72.0,56.0,-100.00,SSE,162,3.0,13.0,58,0.00,,,0.00,453.000000,,2013-03-21 00:22:00,
2013-03-20 14:32:00,72.0,56.0,-100.00,SSE,162,3.0,13.0,58,0.00,,,0.00,453.000000,,2013-03-21 00:32:00,
2013-03-20 15:02:00,70.0,56.0,-100.00,SSE,165,4.0,11.0,61,0.00,,,0.00,355.000000,,2013-03-21 01:02:00,
2013-03-20 15:12:00,70.0,56.0,-100.00,SSE,165,4.0,11.0,61,0.00,,,0.00,355.000000,,2013-03-21 01:12:00,
2013-03-20 15:22:00,70.0,56.0,-100.00,SSE,165,4.0,11.0,61,0.00,,,0.00,355.000000,,2013-03-21 01:22:00,
2013-03-20 15:32:00,70.0,56.0,-100.00,SSE,165,4.0,11.0,61,0.00,,,0.00,355.000000,,2013-03-21 01:32:00,
2013-03-20 16:02:00,68.0,55.0,-100.00,South,169,3.0,11.0,64,0.00,,,0.00,263.000000,,2013-03-21 02:02:00,
2013-03-20 16:12:00,68.0,55.0,-100.00,South,169,3.0,11.0,64,0.00,,,0.00,263.000000,,2013-03-21 02:12:00,
2013-03-20 16:22:00,68.0,55.0,-100.00,South,169,3.0,11.0,64,0.00,,,0.00,263.000000,,2013-03-21 02:22:00,
2013-03-20 16:32:00,68.0,55.0,-100.00,South,169,3.0,11.0,64,0.00,,,0.00,263.000000,,2013-03-21 02:32:00,
2013-03-20 17:02:00,66.0,58.0,-100.00,South,170,4.0,12.0,76,0.00,,,0.00,170.000000,,2013-03-21 03:02:00,
2013-03-20 17:12:00,66.0,58.0,-100.00,South,170,4.0,12.0,76,0.00,,,0.00,170.000000,,2013-03-21 03:12:00,
2013-03-20 17:22:00,66.0,58.0,-100.00,South,170,4.0,12.0,76,0.00,,,0.00,170.000000,,2013-03-21 03:22:00,
2013-03-20 17:32:00,66.0,58.0,-100.00,South,170,4.0,12.0,76,0.00,,,0.00,170.000000,,2013-03-21 03:32:00,
2013-03-20 18:02:00,66.0,61.0,-100.00,SE,146,4.0,10.0,85,0.00,,,0.00,158.000000,,2013-03-21 04:02:00,
2013-03-20 18:12:00,66.0,61.0,-100.00,SE,146,4.0,10.0,85,0.00,,,0.00,158.000000,,2013-03-21 04:12:00,
2013-03-20 18:22:00,66.0,61.0,-100.00,SE,146,4.0,10.0,85,0.00,,,0.00,158.000000,,2013-03-21 04:22:00,
2013-03-20 18:32:00,66.0,61.0,-100.00,SE,146,4.0,10.0,85,0.00,,,0.00,158.000000,,2013-03-21 04:32:00,
2013-03-20 19:02:00,63.0,56.0,-100.00,SE,131,5.0,12.0,79,0.00,,,0.00,74.000000,,2013-03-21 05:02:00,
2013-03-20 19:12:00,63.0,56.0,-100.00,SE,131,5.0,12.0,79,0.00,,,0.00,74.000000,,2013-03-21 05:12:00,
2013-03-20 19:22:00,63.0,56.0,-100.00,SE,131,5.0,12.0,79,0.00,,,0.00,74.000000,,2013-03-21 05:22:00,
2013-03-20 19:32:00,63.0,56.0,-100.00,SE,131,5.0,12.0,79,0.00,,,0.00,74.000000,,2013-03-21 05:32:00,
2013-03-20 20:02:00,63.0,56.0,-100.00,SE,136,8.0,13.0,77,0.00,,,0.00,1.000000,,2013-03-21 06:02:00,
2013-03-20 20:12:00,63.0,56.0,-100.00,SE,136,8.0,13.0,77,0.00,,,0.00,1.000000,,2013-03-21 06:12:00,
2013-03-20 20:22:00,63.0,56.0,-100.00,SE,136,8.0,13.0,77,0.00,,,0.00,1.000000,,2013-03-21 06:22:00,
2013-03-20 20:32:00,63.0,56.0,-100.00,SE,136,8.0,13.0,77,0.00,,,0.00,1.000000,,2013-03-21 06:32:00,
2013-03-20 21:02:00,64.0,57.0,-100.00,SE,139,8.0,15.0,79,0.00,,,0.00,0.000000,,2013-03-21 07:02:00,
2013-03-20 21:12:00,64.0,57.0,-100.00,SE,139,8.0,15.0,79,0.00,,,0.00,0.000000,,2013-03-21 07:12:00,
2013-03-20 21:22:00,64.0,57.0,-100.00,SE,139,8.0,15.0,79,0.00,,,0.00,0.000000,,2013-03-21 07:22:00,
2013-03-20 21:32:00,64.0,57.0,-100.00,SE,139,8.0,15.0,79,0.00,,,0.00,0.000000,,2013-03-21 07:32:00,
2013-03-20 22:02:00,64.0,55.0,-100.00,SE,144,5.0,15.0,72,0.00,,,0.00,0.000000,,2013-03-21 08:02:00,
2013-03-20 22:12:00,64.0,55.0,-100.00,SE,144,5.0,15.0,72,0.00,,,0.00,0.000000,,2013-03-21 08:12:00,
2013-03-20 22:22:00,64.0,55.0,-100.00,SE,144,5.0,15.0,72,0.00,,,0.00,0.000000,,2013-03-21 08:22:00,
2013-03-20 22:32:00,64.0,55.0,-100.00,SE,144,5.0,15.0,72,0.00,,,0.00,0.000000,,2013-03-21 08:32:00,
2013-03-20 23:02:00,64.0,55.0,-100.00,SE,141,5.0,16.0,72,0.00,,,0.00,0.000000,,2013-03-21 09:02:00,
2013-03-20 23:11:00,64.0,55.0,-100.00,SE,141,5.0,16.0,72,0.00,,,0.00,0.000000,,2013-03-21 09:11:00,
2013-03-20 23:21:00,64.0,55.0,-100.00,SE,141,5.0,16.0,72,0.00,,,0.00,0.000000,,2013-03-21 09:21:00,
2013-03-20 23:33:00,64.0,55.0,-100.00,SE,141,5.0,16.0,72,0.00,,,0.00,0.000000,,2013-03-21 09:33:00,